A2SWK KEYW-MYNN

Flight info

Callsign A2SWK
Flight time 1h 36m
Altitude 7000
Route CARNU DCT AVION DCT RAJAY
Aircraft K100/L-SBDGRY/S

Departure

Time 2026-05-07 21:59
Airport Key West International Airport (KEYW)

Arrival

Time 2026-05-07 23:36
Airport Lynden Pindling International Airport (MYNN)
Time Latitude Longitude Altitude Speed Heading
2026-05-07 21:55 24.55444 -81.75624 15 ft 0 kts 335°
2026-05-07 21:56 24.55449 -81.75627 16 ft 3 kts 341°
2026-05-07 21:56 24.55485 -81.75609 16 ft 9 kts 34°
2026-05-07 21:57 24.55527 -81.75553 16 ft 11 kts 84°
2026-05-07 21:57 24.55530 -81.75458 17 ft 14 kts 89°
2026-05-07 21:57 24.55530 -81.75351 18 ft 13 kts 85°
2026-05-07 21:57 24.55543 -81.75264 17 ft 11 kts 36°
2026-05-07 21:58 24.55622 -81.75272 15 ft 11 kts 273°
2026-05-07 21:58 24.55618 -81.75304 16 ft 0 kts 271°
2026-05-07 21:58 24.55616 -81.75496 18 ft 60 kts 270°
2026-05-07 21:59 24.55613 -81.76152 103 ft 101 kts 269°
2026-05-07 21:59 24.55601 -81.76940 393 ft 107 kts 265°
2026-05-07 21:59 24.55774 -81.77811 511 ft 132 kts 313°
2026-05-07 21:59 24.56605 -81.78070 788 ft 135 kts 20°
2026-05-07 22:00 24.57116 -81.77241 863 ft 149 kts 95°
2026-05-07 22:00 24.56945 -81.76072 863 ft 160 kts 99°
2026-05-07 22:00 24.56882 -81.74832 820 ft 164 kts 79°
2026-05-07 22:00 24.57122 -81.73599 745 ft 167 kts 74°
2026-05-07 22:01 24.57907 -81.72705 730 ft 167 kts 19°
2026-05-07 22:01 24.59005 -81.72378 846 ft 161 kts 24°
2026-05-07 22:01 24.59965 -81.71772 965 ft 158 kts 35°
2026-05-07 22:01 24.60873 -81.71108 1091 ft 157 kts 34°
2026-05-07 22:02 24.61785 -81.70446 1223 ft 157 kts 34°
2026-05-07 22:02 24.62698 -81.69784 1350 ft 156 kts 33°
2026-05-07 22:02 24.63588 -81.69143 1595 ft 150 kts 33°
2026-05-07 22:02 24.64445 -81.68522 1837 ft 148 kts 33°
2026-05-07 22:03 24.65299 -81.67901 2080 ft 147 kts 33°
2026-05-07 22:03 24.66154 -81.67283 2324 ft 147 kts 33°
2026-05-07 22:03 24.67012 -81.66662 2567 ft 148 kts 33°
2026-05-07 22:03 24.67874 -81.66037 2807 ft 149 kts 33°
2026-05-07 22:04 24.68746 -81.65403 2988 ft 153 kts 32°
2026-05-07 22:04 24.69659 -81.64739 2991 ft 164 kts 32°
2026-05-07 22:04 24.70627 -81.64036 2990 ft 168 kts 32°
2026-05-07 22:04 24.71605 -81.63327 2993 ft 169 kts 32°
2026-05-07 22:05 24.72586 -81.62617 2989 ft 169 kts 33°
2026-05-07 22:05 24.73570 -81.61903 2989 ft 169 kts 33°
2026-05-07 22:05 24.74554 -81.61189 2989 ft 169 kts 33°
2026-05-07 22:05 24.75538 -81.60474 2990 ft 169 kts 32°
2026-05-07 22:06 24.76524 -81.59758 2990 ft 169 kts 33°
2026-05-07 22:06 24.77510 -81.59042 2990 ft 170 kts 32°
2026-05-07 22:06 24.78486 -81.58332 2988 ft 171 kts 32°
2026-05-07 22:06 24.79478 -81.57612 2992 ft 170 kts 32°
2026-05-07 22:07 24.80475 -81.56888 2999 ft 171 kts 32°
2026-05-07 22:07 24.81469 -81.56165 2993 ft 171 kts 32°
2026-05-07 22:07 24.82453 -81.55449 2992 ft 171 kts 32°
2026-05-07 22:07 24.83449 -81.54725 2993 ft 171 kts 32°
2026-05-07 22:08 24.84441 -81.54003 2993 ft 171 kts 32°
2026-05-07 22:08 24.85438 -81.53279 2993 ft 171 kts 32°
2026-05-07 22:08 24.86431 -81.52556 2993 ft 171 kts 32°
2026-05-07 22:08 24.87426 -81.51833 2995 ft 171 kts 32°
2026-05-07 22:09 24.88419 -81.51110 2995 ft 171 kts 32°
2026-05-07 22:09 24.89420 -81.50381 2990 ft 172 kts 32°
2026-05-07 22:09 24.90417 -81.49654 2990 ft 172 kts 32°
2026-05-07 22:09 24.91400 -81.48940 2990 ft 171 kts 32°
2026-05-07 22:10 24.92395 -81.48214 2990 ft 171 kts 32°
2026-05-07 22:10 24.93387 -81.47491 2991 ft 171 kts 32°
2026-05-07 22:10 24.94382 -81.46766 2990 ft 171 kts 32°
2026-05-07 22:10 24.95375 -81.46042 2993 ft 171 kts 32°
2026-05-07 22:11 24.96372 -81.45316 2990 ft 171 kts 32°
2026-05-07 22:11 24.97367 -81.44590 2995 ft 171 kts 32°
2026-05-07 22:11 24.98363 -81.43864 2991 ft 171 kts 32°
2026-05-07 22:11 24.99359 -81.43137 2990 ft 171 kts 32°
2026-05-07 22:12 25.00342 -81.42420 2989 ft 171 kts 32°
2026-05-07 22:12 25.01334 -81.41696 2997 ft 171 kts 32°
2026-05-07 22:12 25.02330 -81.40969 2994 ft 171 kts 32°
2026-05-07 22:12 25.03324 -81.40244 2993 ft 172 kts 32°
2026-05-07 22:13 25.04319 -81.39517 2998 ft 171 kts 33°
2026-05-07 22:13 25.05312 -81.38792 2993 ft 171 kts 32°
2026-05-07 22:13 25.06305 -81.38067 2993 ft 171 kts 32°
2026-05-07 22:13 25.07299 -81.37340 2992 ft 172 kts 32°
2026-05-07 22:14 25.08309 -81.36601 2867 ft 176 kts 32°
2026-05-07 22:14 25.09338 -81.35851 2743 ft 178 kts 31°
2026-05-07 22:14 25.10370 -81.35098 2620 ft 178 kts 31°
2026-05-07 22:14 25.11399 -81.34345 2500 ft 177 kts 31°
2026-05-07 22:15 25.12420 -81.33584 2375 ft 177 kts 36°
2026-05-07 22:15 25.13171 -81.32534 2259 ft 179 kts 62°
2026-05-07 22:15 25.13500 -81.31215 2139 ft 180 kts 86°
2026-05-07 22:15 25.13355 -81.29836 2023 ft 181 kts 102°
2026-05-07 22:16 25.13109 -81.28493 2004 ft 176 kts 100°
2026-05-07 22:16 25.12880 -81.27171 2005 ft 176 kts 101°
2026-05-07 22:16 25.12647 -81.25853 2001 ft 174 kts 100°
2026-05-07 22:16 25.12412 -81.24540 2006 ft 175 kts 101°
2026-05-07 22:17 25.12255 -81.23667 2000 ft 175 kts 101°
2026-05-07 22:17 25.12021 -81.22354 2002 ft 173 kts 101°
2026-05-07 22:17 25.11788 -81.21047 2005 ft 174 kts 101°
2026-05-07 22:17 25.11552 -81.19731 2001 ft 175 kts 101°
2026-05-07 22:18 25.11317 -81.18411 2001 ft 176 kts 101°
2026-05-07 22:18 25.10843 -81.15757 2006 ft 177 kts 100°
2026-05-07 22:18 25.10605 -81.14422 1997 ft 177 kts 100°
2026-05-07 22:19 25.10368 -81.13093 1999 ft 177 kts 101°
2026-05-07 22:19 25.10128 -81.11763 1998 ft 176 kts 100°
2026-05-07 22:19 25.09895 -81.10451 1997 ft 176 kts 100°
2026-05-07 22:19 25.09656 -81.09124 1998 ft 176 kts 101°
2026-05-07 22:20 25.09417 -81.07794 2000 ft 178 kts 101°
2026-05-07 22:20 25.09178 -81.06460 2000 ft 177 kts 101°
2026-05-07 22:20 25.08940 -81.05126 1999 ft 177 kts 101°
2026-05-07 22:20 25.08699 -81.03794 2002 ft 177 kts 100°
2026-05-07 22:21 25.08462 -81.02461 1997 ft 176 kts 101°
2026-05-07 22:21 25.08224 -81.01140 1999 ft 175 kts 101°
2026-05-07 22:21 25.07986 -80.99814 1995 ft 176 kts 101°
2026-05-07 22:21 25.07747 -80.98495 1994 ft 174 kts 101°
2026-05-07 22:22 25.07512 -80.97194 1995 ft 173 kts 101°
2026-05-07 22:22 25.07276 -80.95883 1998 ft 174 kts 101°
2026-05-07 22:22 25.07039 -80.94574 2000 ft 175 kts 100°
2026-05-07 22:22 25.06800 -80.93245 1998 ft 177 kts 100°
2026-05-07 22:23 25.06563 -80.91937 1997 ft 175 kts 101°
2026-05-07 22:23 25.06310 -80.90616 2003 ft 176 kts 101°
2026-05-07 22:23 25.06083 -80.89285 2000 ft 176 kts 101°
2026-05-07 22:23 25.05848 -80.87961 2004 ft 176 kts 99°
2026-05-07 22:24 25.05609 -80.86633 2001 ft 176 kts 100°
2026-05-07 22:24 25.05368 -80.85309 2001 ft 176 kts 101°
2026-05-07 22:24 25.05131 -80.83980 1996 ft 178 kts 101°
2026-05-07 22:24 25.04888 -80.82653 1992 ft 179 kts 101°
2026-05-07 22:25 25.04643 -80.81306 1985 ft 179 kts 101°
2026-05-07 22:25 25.04399 -80.79957 1988 ft 179 kts 101°
2026-05-07 22:25 25.04156 -80.78620 1986 ft 177 kts 101°
2026-05-07 22:25 25.03914 -80.77292 1986 ft 176 kts 101°
2026-05-07 22:26 25.03672 -80.75966 1988 ft 176 kts 101°
2026-05-07 22:26 25.03433 -80.74641 1988 ft 176 kts 101°
2026-05-07 22:26 25.03192 -80.73320 1984 ft 176 kts 101°
2026-05-07 22:26 25.02951 -80.71999 1986 ft 175 kts 101°
2026-05-07 22:27 25.02711 -80.70678 1984 ft 176 kts 101°
2026-05-07 22:27 25.02471 -80.69358 1985 ft 176 kts 101°
2026-05-07 22:27 25.02231 -80.68038 1985 ft 176 kts 101°
2026-05-07 22:27 25.01990 -80.66719 1986 ft 175 kts 101°
2026-05-07 22:28 25.01749 -80.65397 1987 ft 175 kts 101°
2026-05-07 22:28 25.01509 -80.64082 1985 ft 175 kts 101°
2026-05-07 22:28 25.01272 -80.62782 1986 ft 175 kts 101°
2026-05-07 22:28 25.01030 -80.61458 1987 ft 178 kts 101°
2026-05-07 22:29 25.00787 -80.60117 1990 ft 178 kts 101°
2026-05-07 22:29 25.00544 -80.58788 1990 ft 176 kts 101°
2026-05-07 22:29 25.00300 -80.57464 1990 ft 176 kts 101°
2026-05-07 22:29 25.00057 -80.56141 1990 ft 176 kts 101°
2026-05-07 22:30 24.99816 -80.54817 1986 ft 176 kts 100°
2026-05-07 22:30 24.99574 -80.53490 1996 ft 178 kts 101°
2026-05-07 22:30 24.99328 -80.52155 1988 ft 176 kts 101°
2026-05-07 22:30 24.99088 -80.50848 1989 ft 175 kts 101°
2026-05-07 22:31 24.98845 -80.49526 1989 ft 176 kts 101°
2026-05-07 22:31 24.98603 -80.48207 1993 ft 175 kts 101°
2026-05-07 22:31 24.98360 -80.46890 1992 ft 175 kts 101°
2026-05-07 22:31 24.98118 -80.45571 1993 ft 175 kts 101°
2026-05-07 22:32 24.97879 -80.44266 1994 ft 176 kts 101°
2026-05-07 22:32 24.97638 -80.42945 1993 ft 175 kts 101°
2026-05-07 22:32 24.97395 -80.41628 1993 ft 175 kts 101°
2026-05-07 22:32 24.97249 -80.40303 1994 ft 173 kts 82°
2026-05-07 22:33 24.97516 -80.39012 1994 ft 173 kts 74°
2026-05-07 22:33 24.97781 -80.37717 1995 ft 174 kts 78°
2026-05-07 22:33 24.97990 -80.36405 1996 ft 174 kts 79°
2026-05-07 22:33 24.98191 -80.35087 1995 ft 174 kts 79°
2026-05-07 22:34 24.98394 -80.33773 1994 ft 174 kts 79°
2026-05-07 22:34 24.98597 -80.32462 1994 ft 174 kts 79°
2026-05-07 22:34 24.98798 -80.31165 1996 ft 174 kts 79°
2026-05-07 22:34 24.99002 -80.29846 1996 ft 174 kts 79°
2026-05-07 22:35 24.99206 -80.28527 1998 ft 175 kts 79°
2026-05-07 22:35 24.99410 -80.27206 1996 ft 174 kts 79°
2026-05-07 22:35 24.99610 -80.25913 2182 ft 164 kts 79°
2026-05-07 22:35 24.99793 -80.24716 2538 ft 154 kts 78°
2026-05-07 22:36 24.99972 -80.23572 2894 ft 149 kts 78°
2026-05-07 22:36 25.00148 -80.22447 3258 ft 147 kts 79°
2026-05-07 22:36 25.00318 -80.21349 3601 ft 147 kts 79°
2026-05-07 22:36 25.00489 -80.20231 3932 ft 147 kts 79°
2026-05-07 22:37 25.00659 -80.19121 4269 ft 146 kts 78°
2026-05-07 22:37 25.00827 -80.18024 4612 ft 145 kts 78°
2026-05-07 22:37 25.00994 -80.16930 4938 ft 146 kts 79°
2026-05-07 22:37 25.01164 -80.15814 5220 ft 149 kts 80°
2026-05-07 22:38 25.01338 -80.14667 5458 ft 153 kts 80°
2026-05-07 22:38 25.01518 -80.13500 5700 ft 155 kts 80°
2026-05-07 22:38 25.01696 -80.12336 5941 ft 156 kts 81°
2026-05-07 22:38 25.01876 -80.11156 6187 ft 156 kts 80°
2026-05-07 22:39 25.02058 -80.09977 6430 ft 156 kts 81°
2026-05-07 22:39 25.02238 -80.08811 6658 ft 155 kts 80°
2026-05-07 22:39 25.02418 -80.07640 6888 ft 155 kts 80°
2026-05-07 22:39 25.02600 -80.06442 6996 ft 163 kts 81°
2026-05-07 22:40 25.02790 -80.05185 6999 ft 171 kts 80°
2026-05-07 22:40 25.02991 -80.03881 6999 ft 174 kts 80°
2026-05-07 22:40 25.03193 -80.02557 6999 ft 174 kts 80°
2026-05-07 22:40 25.03396 -80.01233 6998 ft 175 kts 80°
2026-05-07 22:41 25.03599 -79.99906 7000 ft 176 kts 80°
2026-05-07 22:41 25.03806 -79.98560 7005 ft 179 kts 80°
2026-05-07 22:41 25.04016 -79.97193 7010 ft 182 kts 81°
2026-05-07 22:41 25.04223 -79.95812 7014 ft 183 kts 80°
2026-05-07 22:42 25.04434 -79.94421 7015 ft 184 kts 80°
2026-05-07 22:42 25.04644 -79.93050 7014 ft 184 kts 81°
2026-05-07 22:42 25.04857 -79.91641 7016 ft 184 kts 80°
2026-05-07 22:42 25.05066 -79.90259 7015 ft 184 kts 80°
2026-05-07 22:43 25.05278 -79.88863 7015 ft 184 kts 80°
2026-05-07 22:43 25.05490 -79.87464 7014 ft 184 kts 80°
2026-05-07 22:43 25.05700 -79.86085 7015 ft 184 kts 80°
2026-05-07 22:43 25.05911 -79.84688 7014 ft 185 kts 80°
2026-05-07 22:44 25.06122 -79.83292 7013 ft 184 kts 80°
2026-05-07 22:44 25.06333 -79.81896 7015 ft 184 kts 80°
2026-05-07 22:44 25.06544 -79.80502 7014 ft 184 kts 80°
2026-05-07 22:44 25.06754 -79.79111 7013 ft 184 kts 80°
2026-05-07 22:45 25.06965 -79.77715 7015 ft 184 kts 80°
2026-05-07 22:45 25.07175 -79.76320 7015 ft 184 kts 80°
2026-05-07 22:45 25.07386 -79.74923 7015 ft 184 kts 80°
2026-05-07 22:45 25.07592 -79.73548 7015 ft 184 kts 80°
2026-05-07 22:46 25.07802 -79.72156 7031 ft 184 kts 80°
2026-05-07 22:46 25.08012 -79.70758 7012 ft 185 kts 80°
2026-05-07 22:46 25.08224 -79.69359 7008 ft 185 kts 80°
2026-05-07 22:46 25.08433 -79.67961 7008 ft 185 kts 80°
2026-05-07 22:47 25.08643 -79.66560 7007 ft 184 kts 80°
2026-05-07 22:47 25.08852 -79.65165 7007 ft 184 kts 81°
2026-05-07 22:47 25.09061 -79.63772 7007 ft 184 kts 80°
2026-05-07 22:47 25.09270 -79.62377 7008 ft 184 kts 80°
2026-05-07 22:48 25.09478 -79.60982 7007 ft 185 kts 81°
2026-05-07 22:48 25.09688 -79.59585 7007 ft 185 kts 81°
2026-05-07 22:48 25.09897 -79.58188 7008 ft 184 kts 81°
2026-05-07 22:48 25.10106 -79.56793 7008 ft 184 kts 80°
2026-05-07 22:49 25.10315 -79.55396 7007 ft 184 kts 80°
2026-05-07 22:49 25.10524 -79.54001 7007 ft 184 kts 80°
2026-05-07 22:49 25.10732 -79.52608 7007 ft 184 kts 80°
2026-05-07 22:49 25.10939 -79.51214 7007 ft 184 kts 80°
2026-05-07 22:50 25.11145 -79.49834 7005 ft 184 kts 81°
2026-05-07 22:50 25.11353 -79.48437 7007 ft 184 kts 81°
2026-05-07 22:50 25.11560 -79.47043 7008 ft 184 kts 81°
2026-05-07 22:50 25.11766 -79.45649 7007 ft 184 kts 81°
2026-05-07 22:51 25.11973 -79.44254 7007 ft 184 kts 81°
2026-05-07 22:51 25.12181 -79.42856 7005 ft 184 kts 81°
2026-05-07 22:51 25.12388 -79.41459 7011 ft 185 kts 81°
2026-05-07 22:51 25.12596 -79.40059 7010 ft 185 kts 81°
2026-05-07 22:52 25.12803 -79.38658 7009 ft 185 kts 81°
2026-05-07 22:52 25.13011 -79.37256 7010 ft 185 kts 81°
2026-05-07 22:52 25.13219 -79.35856 7010 ft 185 kts 81°
2026-05-07 22:52 25.13424 -79.34471 7010 ft 185 kts 81°
2026-05-07 22:53 25.13631 -79.33067 7011 ft 186 kts 81°
2026-05-07 22:53 25.13839 -79.31661 7011 ft 186 kts 81°
2026-05-07 22:53 25.14047 -79.30254 7011 ft 185 kts 81°
2026-05-07 22:53 25.14253 -79.28851 7011 ft 185 kts 81°
2026-05-07 22:54 25.14459 -79.27447 7011 ft 185 kts 81°
2026-05-07 22:54 25.14666 -79.26044 7011 ft 185 kts 81°
2026-05-07 22:54 25.14870 -79.24658 7011 ft 185 kts 81°
2026-05-07 22:54 25.15077 -79.23256 7011 ft 185 kts 81°
2026-05-07 22:55 25.15283 -79.21850 7010 ft 185 kts 81°
2026-05-07 22:55 25.15489 -79.20447 7010 ft 185 kts 81°
2026-05-07 22:55 25.15696 -79.19044 7010 ft 185 kts 81°
2026-05-07 22:55 25.15902 -79.17637 7011 ft 185 kts 81°
2026-05-07 22:56 25.16106 -79.16248 7011 ft 185 kts 81°
2026-05-07 22:56 25.16312 -79.14841 7011 ft 185 kts 81°
2026-05-07 22:56 25.16517 -79.13437 7011 ft 185 kts 81°
2026-05-07 22:56 25.16723 -79.12034 7011 ft 185 kts 81°
2026-05-07 22:57 25.16927 -79.10631 7010 ft 185 kts 81°
2026-05-07 22:57 25.17132 -79.09226 7011 ft 185 kts 81°
2026-05-07 22:57 25.17338 -79.07822 7011 ft 185 kts 81°
2026-05-07 22:57 25.17542 -79.06421 7011 ft 185 kts 81°
2026-05-07 22:58 25.17744 -79.05034 7008 ft 185 kts 82°
2026-05-07 22:58 25.17949 -79.03625 7008 ft 185 kts 82°
2026-05-07 22:58 25.18153 -79.02221 7009 ft 185 kts 82°
2026-05-07 22:58 25.18357 -79.00817 7009 ft 185 kts 82°
2026-05-07 22:59 25.18562 -78.99412 7009 ft 185 kts 81°
2026-05-07 22:59 25.18767 -78.98006 7010 ft 185 kts 81°
2026-05-07 22:59 25.18971 -78.96601 7012 ft 185 kts 81°
2026-05-07 22:59 25.19174 -78.95201 7011 ft 185 kts 82°
2026-05-07 23:00 25.19377 -78.93798 7011 ft 185 kts 82°
2026-05-07 23:00 25.19581 -78.92393 7010 ft 185 kts 82°
2026-05-07 23:00 25.19784 -78.90986 7011 ft 185 kts 81°
2026-05-07 23:00 25.19987 -78.89596 7012 ft 185 kts 81°
2026-05-07 23:01 25.20189 -78.88188 7012 ft 186 kts 82°
2026-05-07 23:01 25.20392 -78.86779 7012 ft 186 kts 81°
2026-05-07 23:01 25.20596 -78.85372 7012 ft 185 kts 81°
2026-05-07 23:01 25.20799 -78.83968 7013 ft 185 kts 82°
2026-05-07 23:02 25.21000 -78.82563 7013 ft 185 kts 82°
2026-05-07 23:02 25.21203 -78.81158 7012 ft 186 kts 81°
2026-05-07 23:02 25.21404 -78.79770 7015 ft 185 kts 82°
2026-05-07 23:02 25.21606 -78.78362 7015 ft 185 kts 82°
2026-05-07 23:03 25.21808 -78.76960 7015 ft 185 kts 82°
2026-05-07 23:03 25.21941 -78.76029 7014 ft 185 kts 82°
2026-05-07 23:03 25.22143 -78.74629 7014 ft 184 kts 82°
2026-05-07 23:03 25.22408 -78.72775 7015 ft 184 kts 82°
2026-05-07 23:04 25.22609 -78.71378 7015 ft 184 kts 81°
2026-05-07 23:04 25.22745 -78.70429 7014 ft 185 kts 82°
2026-05-07 23:04 25.22943 -78.69049 7015 ft 184 kts 82°
2026-05-07 23:04 25.23143 -78.67649 7014 ft 185 kts 82°
2026-05-07 23:05 25.23344 -78.66239 7011 ft 187 kts 82°
2026-05-07 23:05 25.23548 -78.64817 7011 ft 187 kts 82°
2026-05-07 23:05 25.23752 -78.63393 7011 ft 187 kts 82°
2026-05-07 23:05 25.23952 -78.61990 7012 ft 188 kts 82°
2026-05-07 23:06 25.24156 -78.60564 7012 ft 188 kts 82°
2026-05-07 23:06 25.24359 -78.59141 7012 ft 188 kts 82°
2026-05-07 23:06 25.24562 -78.57712 7012 ft 188 kts 82°
2026-05-07 23:06 25.24765 -78.56286 7010 ft 188 kts 82°
2026-05-07 23:07 25.24967 -78.54864 7012 ft 188 kts 82°
2026-05-07 23:07 25.25170 -78.53438 7013 ft 187 kts 82°
2026-05-07 23:07 25.25372 -78.52014 7013 ft 187 kts 82°
2026-05-07 23:07 25.25574 -78.50591 7013 ft 187 kts 82°
2026-05-07 23:08 25.25774 -78.49186 7011 ft 187 kts 82°
2026-05-07 23:08 25.25976 -78.47757 7014 ft 187 kts 82°
2026-05-07 23:08 25.26178 -78.46333 7013 ft 187 kts 82°
2026-05-07 23:08 25.26379 -78.44907 7013 ft 188 kts 82°
2026-05-07 23:09 25.26579 -78.43498 7012 ft 187 kts 82°
2026-05-07 23:09 25.26780 -78.42076 7011 ft 188 kts 82°
2026-05-07 23:09 25.26982 -78.40646 7011 ft 188 kts 82°
2026-05-07 23:09 25.27183 -78.39223 7012 ft 188 kts 82°
2026-05-07 23:10 25.27385 -78.37790 7014 ft 187 kts 82°
2026-05-07 23:10 25.27585 -78.36369 7015 ft 187 kts 82°
2026-05-07 23:10 25.27783 -78.34964 7015 ft 187 kts 82°
2026-05-07 23:10 25.27984 -78.33535 7016 ft 188 kts 82°
2026-05-07 23:11 25.28184 -78.32111 7016 ft 188 kts 82°
2026-05-07 23:11 25.28385 -78.30682 7016 ft 188 kts 82°
2026-05-07 23:11 25.28586 -78.29256 7017 ft 187 kts 82°
2026-05-07 23:11 25.28785 -78.27831 7017 ft 188 kts 82°
2026-05-07 23:12 25.28986 -78.26402 7013 ft 188 kts 82°
2026-05-07 23:12 25.29183 -78.24993 7016 ft 188 kts 82°
2026-05-07 23:12 25.29384 -78.23564 7015 ft 187 kts 82°
2026-05-07 23:12 25.29583 -78.22140 7016 ft 187 kts 82°
2026-05-07 23:13 25.29780 -78.20729 7015 ft 187 kts 82°
2026-05-07 23:13 25.29942 -78.19285 7015 ft 186 kts 92°
2026-05-07 23:13 25.29667 -78.17923 7016 ft 184 kts 116°
2026-05-07 23:13 25.29014 -78.16707 7016 ft 183 kts 124°
2026-05-07 23:14 25.28341 -78.15506 7018 ft 184 kts 124°
2026-05-07 23:14 25.27673 -78.14303 7019 ft 184 kts 124°
2026-05-07 23:14 25.27001 -78.13099 7017 ft 184 kts 124°
2026-05-07 23:14 25.26329 -78.11897 7016 ft 184 kts 124°
2026-05-07 23:15 25.25665 -78.10711 7020 ft 184 kts 124°
2026-05-07 23:15 25.24993 -78.09511 7019 ft 184 kts 124°
2026-05-07 23:15 25.24318 -78.08305 7021 ft 184 kts 124°
2026-05-07 23:15 25.23645 -78.07103 7020 ft 184 kts 124°
2026-05-07 23:16 25.22972 -78.05901 7021 ft 184 kts 124°
2026-05-07 23:16 25.22299 -78.04701 7019 ft 184 kts 124°
2026-05-07 23:16 25.21615 -78.03479 6864 ft 191 kts 124°
2026-05-07 23:16 25.20913 -78.02219 6648 ft 196 kts 124°
2026-05-07 23:17 25.20188 -78.00928 6423 ft 199 kts 125°
2026-05-07 23:17 25.19452 -77.99623 6179 ft 200 kts 125°
2026-05-07 23:17 25.18713 -77.98310 5939 ft 201 kts 124°
2026-05-07 23:17 25.17977 -77.96995 5696 ft 201 kts 124°
2026-05-07 23:18 25.17240 -77.95681 5456 ft 201 kts 124°
2026-05-07 23:18 25.16504 -77.94366 5215 ft 202 kts 124°
2026-05-07 23:18 25.15775 -77.93059 4981 ft 202 kts 124°
2026-05-07 23:18 25.15036 -77.91745 4739 ft 202 kts 124°
2026-05-07 23:19 25.14291 -77.90426 4490 ft 201 kts 124°
2026-05-07 23:19 25.13552 -77.89114 4215 ft 203 kts 123°
2026-05-07 23:19 25.12816 -77.87797 4019 ft 193 kts 123°
2026-05-07 23:19 25.12139 -77.86596 4007 ft 178 kts 123°
2026-05-07 23:20 25.11493 -77.85456 3997 ft 173 kts 124°
2026-05-07 23:20 25.10868 -77.84344 3999 ft 172 kts 123°
2026-05-07 23:20 25.10239 -77.83224 3999 ft 171 kts 123°
2026-05-07 23:20 25.09614 -77.82114 4001 ft 170 kts 123°
2026-05-07 23:21 25.08988 -77.80999 4006 ft 174 kts 123°
2026-05-07 23:21 25.08342 -77.79852 4011 ft 177 kts 123°
2026-05-07 23:21 25.07689 -77.78691 4010 ft 179 kts 123°
2026-05-07 23:21 25.07031 -77.77525 4008 ft 179 kts 123°
2026-05-07 23:22 25.06373 -77.76359 4014 ft 179 kts 123°
2026-05-07 23:22 25.05713 -77.75190 4011 ft 179 kts 123°
2026-05-07 23:22 25.05049 -77.74020 4013 ft 180 kts 123°
2026-05-07 23:22 25.04391 -77.72844 4016 ft 180 kts 122°
2026-05-07 23:23 25.03731 -77.71668 4012 ft 181 kts 123°
2026-05-07 23:23 25.03077 -77.70508 4013 ft 180 kts 123°
2026-05-07 23:23 25.02415 -77.69335 4014 ft 180 kts 122°
2026-05-07 23:23 25.01755 -77.68161 4014 ft 179 kts 123°
2026-05-07 23:24 25.01093 -77.66997 4019 ft 179 kts 124°
2026-05-07 23:24 25.00430 -77.65829 4014 ft 180 kts 122°
2026-05-07 23:24 24.99771 -77.64661 4014 ft 179 kts 124°
2026-05-07 23:24 24.99110 -77.63491 4015 ft 180 kts 123°
2026-05-07 23:25 24.98446 -77.62316 4014 ft 181 kts 123°
2026-05-07 23:25 24.97781 -77.61138 4015 ft 181 kts 123°
2026-05-07 23:25 24.97116 -77.59962 4017 ft 181 kts 123°
2026-05-07 23:25 24.96453 -77.58790 4017 ft 180 kts 123°
2026-05-07 23:26 24.95790 -77.57618 4016 ft 180 kts 124°
2026-05-07 23:26 24.95127 -77.56447 4015 ft 179 kts 123°
2026-05-07 23:26 24.94465 -77.55281 4018 ft 180 kts 124°
2026-05-07 23:26 24.93812 -77.54128 4014 ft 179 kts 123°
2026-05-07 23:27 24.92494 -77.51800 4014 ft 179 kts 123°
2026-05-07 23:27 24.91832 -77.50638 4015 ft 179 kts 123°
2026-05-07 23:27 24.91172 -77.49471 4020 ft 179 kts 123°
2026-05-07 23:28 24.90512 -77.48301 4019 ft 180 kts 123°
2026-05-07 23:28 24.89848 -77.47129 4014 ft 180 kts 123°
2026-05-07 23:28 24.89184 -77.45958 4003 ft 179 kts 123°
2026-05-07 23:28 24.88524 -77.44795 4004 ft 179 kts 124°
2026-05-07 23:29 24.87863 -77.43632 4001 ft 179 kts 124°
2026-05-07 23:29 24.87203 -77.42472 4003 ft 178 kts 123°
2026-05-07 23:29 24.86554 -77.41334 4001 ft 177 kts 123°
2026-05-07 23:29 24.85890 -77.40167 3838 ft 184 kts 123°
2026-05-07 23:30 24.85361 -77.38873 3576 ft 188 kts 102°
2026-05-07 23:30 24.85366 -77.37440 3326 ft 188 kts 79°
2026-05-07 23:30 24.85884 -77.36125 3071 ft 188 kts 55°
2026-05-07 23:30 24.86781 -77.35091 2824 ft 183 kts 44°
2026-05-07 23:31 24.87673 -77.34128 2594 ft 177 kts 46°
2026-05-07 23:31 24.88544 -77.33185 2363 ft 174 kts 41°
2026-05-07 23:31 24.89577 -77.32560 2147 ft 167 kts 17°
2026-05-07 23:31 24.90719 -77.32463 2000 ft 164 kts 353°
2026-05-07 23:32 24.91764 -77.32842 1995 ft 155 kts 330°
2026-05-07 23:32 24.92599 -77.33609 1986 ft 161 kts 314°
2026-05-07 23:32 24.93393 -77.34489 1988 ft 166 kts 315°
2026-05-07 23:32 24.94217 -77.35390 1993 ft 168 kts 314°
2026-05-07 23:33 24.95045 -77.36301 1994 ft 168 kts 314°
2026-05-07 23:33 24.95873 -77.37216 1948 ft 171 kts 314°
2026-05-07 23:33 24.96728 -77.38161 1750 ft 177 kts 314°
2026-05-07 23:33 24.97600 -77.39126 1522 ft 178 kts 314°
2026-05-07 23:34 24.98469 -77.40087 1296 ft 172 kts 314°
2026-05-07 23:34 24.99218 -77.40912 1105 ft 138 kts 314°
2026-05-07 23:34 24.99866 -77.41638 928 ft 128 kts 313°
2026-05-07 23:34 25.00486 -77.42334 766 ft 118 kts 313°
2026-05-07 23:35 25.00978 -77.42887 633 ft 104 kts 315°
2026-05-07 23:35 25.01527 -77.43494 490 ft 117 kts 315°
2026-05-07 23:35 25.02105 -77.44139 329 ft 118 kts 316°
2026-05-07 23:35 25.02687 -77.44789 170 ft 119 kts 316°
2026-05-07 23:36 25.03248 -77.45418 30 ft 99 kts 316°
2026-05-07 23:36 25.03617 -77.45829 17 ft 53 kts 313°
2026-05-07 23:36 25.03800 -77.46018 10 ft 33 kts 329°
2026-05-07 23:36 25.03961 -77.46203 8 ft 33 kts 315°
2026-05-07 23:37 25.04096 -77.46343 7 ft 10 kts 356°
2026-05-07 23:37 25.04115 -77.46277 8 ft 11 kts 99°
2026-05-07 23:37 25.04121 -77.46187 8 ft 14 kts 42°
2026-05-07 23:37 25.04199 -77.46143 8 ft 13 kts 57°
2026-05-07 23:38 25.04181 -77.46062 8 ft 15 kts 153°
2026-05-07 23:38 25.04145 -77.46041 8 ft 0 kts 150°
2026-05-07 23:43 25.04145 -77.46040 8 ft 0 kts 150°
2026-05-07 23:43 25.04145 -77.46041 8 ft 0 kts 150°
2026-05-07 23:52 25.04141 -77.46035 8 ft 0 kts 104°